• In Deutschland
  • Länderverzeichnis
  • Für 7 Tage
  • Wassertemperatur
  • Satellitenkarten
  • Wetterkarte
  • Widgets
  • user-avatar
    Anmelden

    Stündliche Wetter Naftalan

    Heute, 20 September, Mittwoch

    Zeit Temperatur Niederschläge Wind Luftdruck Luftfeuchtigkeit
    00:00 +26°C° 0 mm 4 m/S 764 mmHg 67%
    01:00 +26°C° 0 mm 4 m/S 763 mmHg 67%
    02:00 +26°C° 0 mm 3 m/S 763 mmHg 68%
    03:00 +26°C° 0 mm 3 m/S 763 mmHg 67%
    04:00 +26°C° 0 mm 3 m/S 763 mmHg 67%
    05:00 +25°C° 0 mm 3 m/S 763 mmHg 67%
    06:00 +25°C° 0 mm 3 m/S 764 mmHg 66%
    07:00 +27°C° 0 mm 3 m/S 764 mmHg 58%
    08:00 +30°C° 0 mm 2 m/S 764 mmHg 49%
    09:00 +32°C° 0 mm 2 m/S 764 mmHg 43%
    10:00 +34°C° 0 mm 2 m/S 764 mmHg 37%
    11:00 +35°C° 0 mm 2 m/S 763 mmHg 31%
    12:00 +36°C° 0 mm 3 m/S 763 mmHg 25%
    13:00 +36°C° 0 mm 3 m/S 763 mmHg 24%
    14:00 +36°C° 0 mm 4 m/S 763 mmHg 23%
    15:00 +36°C° 0 mm 4 m/S 762 mmHg 24%
    16:00 +34°C° 0 mm 4 m/S 762 mmHg 30%
    17:00 +32°C° 0 mm 4 m/S 762 mmHg 37%
    18:00 +29°C° 0 mm 4 m/S 763 mmHg 44%
    19:00 +28°C° 0 mm 3 m/S 763 mmHg 49%
    20:00 +28°C° 0 mm 3 m/S 763 mmHg 55%
    21:00 +27°C° 0 mm 3 m/S 763 mmHg 60%
    22:00 +26°C° 0 mm 2 m/S 763 mmHg 61%
    23:00 +26°C° 0 mm 2 m/S 763 mmHg 63%

    Morgen, 21 September, Donnerstag

    Zeit Temperatur Niederschläge Wind Luftdruck Luftfeuchtigkeit
    00:00 +26°C° 0 mm 2 m/S 763 mmHg 64%
    01:00 +25°C° 0 mm 2 m/S 763 mmHg 66%
    02:00 +25°C° 0 mm 1 m/S 763 mmHg 67%
    03:00 +25°C° 0 mm 1 m/S 762 mmHg 68%
    04:00 +25°C° 0 mm 1 m/S 763 mmHg 68%
    05:00 +25°C° 0 mm 1 m/S 763 mmHg 68%
    06:00 +25°C° 0 mm 1 m/S 763 mmHg 68%
    07:00 +27°C° 0 mm 1 m/S 763 mmHg 59%
    08:00 +29°C° 0 mm 1 m/S 763 mmHg 50%
    09:00 +31°C° 0 mm 1 m/S 763 mmHg 42%
    10:00 +34°C° 0 mm 2 m/S 763 mmHg 37%
    11:00 +35°C° 0 mm 2 m/S 762 mmHg 33%
    12:00 +36°C° 0 mm 3 m/S 762 mmHg 28%
    13:00 +36°C° 0 mm 4 m/S 762 mmHg 28%
    14:00 +36°C° 0 mm 4 m/S 761 mmHg 27%
    15:00 +36°C° 0 mm 5 m/S 761 mmHg 27%
    16:00 +34°C° 0 mm 5 m/S 761 mmHg 33%
    17:00 +32°C° 0 mm 5 m/S 761 mmHg 38%
    18:00 +29°C° 0 mm 4 m/S 761 mmHg 44%
    19:00 +28°C° 0 mm 4 m/S 761 mmHg 49%
    20:00 +28°C° 0 mm 4 m/S 762 mmHg 53%
    21:00 +27°C° 0 mm 4 m/S 762 mmHg 58%
    22:00 +27°C° 0 mm 3 m/S 762 mmHg 60%
    23:00 +26°C° 0 mm 3 m/S 762 mmHg 62%

    übermorgen, 22 September, Freitag

    Zeit Temperatur Niederschläge Wind Luftdruck Luftfeuchtigkeit
    00:00 +26°C° 0 mm 2 m/S 762 mmHg 63%
    01:00 +25°C° 0 mm 2 m/S 762 mmHg 65%
    02:00 +25°C° 0 mm 2 m/S 761 mmHg 67%
    03:00 +25°C° 0 mm 2 m/S 761 mmHg 69%
    04:00 +25°C° 0 mm 2 m/S 761 mmHg 70%
    05:00 +24°C° 0 mm 1 m/S 761 mmHg 71%
    06:00 +24°C° 0 mm 1 m/S 762 mmHg 72%
    07:00 +26°C° 0 mm 1 m/S 762 mmHg 63%
    08:00 +28°C° 0 mm 1 m/S 762 mmHg 53%
    09:00 +31°C° 0 mm 1 m/S 762 mmHg 43%
    10:00 +32°C° 0 mm 2 m/S 761 mmHg 37%
    11:00 +35°C° 0 mm 2 m/S 761 mmHg 30%
    12:00 +36°C° 0 mm 3 m/S 761 mmHg 24%
    13:00 +36°C° 0 mm 4 m/S 760 mmHg 23%
    14:00 +36°C° 0 mm 4 m/S 760 mmHg 23%
    15:00 +36°C° 0 mm 5 m/S 760 mmHg 22%
    16:00 +34°C° 0 mm 5 m/S 760 mmHg 30%
    17:00 +32°C° 0 mm 5 m/S 760 mmHg 39%
    18:00 +29°C° 0 mm 5 m/S 760 mmHg 47%
    19:00 +28°C° 0 mm 4 m/S 760 mmHg 53%
    20:00 +27°C° 0 mm 4 m/S 760 mmHg 58%
    21:00 +27°C° 0 mm 4 m/S 761 mmHg 64%
    22:00 +26°C° 0 mm 3 m/S 761 mmHg 66%
    23:00 +26°C° 0 mm 2 m/S 761 mmHg 68%

    23 September, Samstag

    Zeit Temperatur Niederschläge Wind Luftdruck Luftfeuchtigkeit
    00:00 +26°C° 0 mm 2 m/S 761 mmHg 71%
    01:00 +26°C° 0 mm 2 m/S 761 mmHg 72%
    02:00 +26°C° 0 mm 2 m/S 761 mmHg 74%
    03:00 +25°C° 0 mm 2 m/S 761 mmHg 76%
    04:00 +25°C° 0 mm 2 m/S 761 mmHg 75%
    05:00 +25°C° 0 mm 2 m/S 762 mmHg 74%
    06:00 +25°C° 0 mm 2 m/S 762 mmHg 73%
    07:00 +27°C° 0 mm 2 m/S 763 mmHg 63%
    08:00 +29°C° 0 mm 2 m/S 763 mmHg 52%
    09:00 +31°C° 0 mm 2 m/S 763 mmHg 42%
    10:00 +33°C° 0 mm 3 m/S 763 mmHg 35%
    11:00 +34°C° 0 mm 3 m/S 763 mmHg 28%
    12:00 +36°C° 0 mm 4 m/S 763 mmHg 21%
    13:00 +36°C° 0 mm 4 m/S 763 mmHg 21%
    14:00 +36°C° 0 mm 5 m/S 762 mmHg 20%
    15:00 +36°C° 0 mm 6 m/S 762 mmHg 19%
    16:00 +34°C° 0 mm 5 m/S 762 mmHg 26%
    17:00 +32°C° 0 mm 5 m/S 763 mmHg 33%
    18:00 +29°C° 0 mm 4 m/S 763 mmHg 40%
    19:00 +28°C° 0 mm 4 m/S 763 mmHg 46%
    20:00 +27°C° 0 mm 3 m/S 764 mmHg 52%
    21:00 +26°C° 0 mm 2 m/S 764 mmHg 58%
    22:00 +26°C° 0 mm 2 m/S 764 mmHg 59%
    23:00 +26°C° 0 mm 2 m/S 764 mmHg 60%

    24 September, Sonntag

    Zeit Temperatur Niederschläge Wind Luftdruck Luftfeuchtigkeit
    00:00 +25°C° 0 mm 2 m/S 764 mmHg 61%
    01:00 +25°C° 0 mm 3 m/S 764 mmHg 60%
    02:00 +25°C° 0 mm 4 m/S 764 mmHg 58%
    03:00 +25°C° 0 mm 5 m/S 764 mmHg 57%
    04:00 +23°C° 0 mm 5 m/S 764 mmHg 60%
    05:00 +23°C° 0 mm 5 m/S 765 mmHg 62%
    06:00 +23°C° 0 mm 5 m/S 765 mmHg 64%
    07:00 +26°C° 0 mm 5 m/S 765 mmHg 57%
    08:00 +28°C° 0 mm 5 m/S 765 mmHg 50%
    09:00 +30°C° 0 mm 5 m/S 766 mmHg 42%
    10:00 +32°C° 0 mm 6 m/S 765 mmHg 38%
    11:00 +33°C° 0 mm 6 m/S 765 mmHg 33%
    12:00 +34°C° 0 mm 6 m/S 765 mmHg 28%
    13:00 +34°C° 0 mm 7 m/S 765 mmHg 31%
    14:00 +33°C° 0 mm 7 m/S 765 mmHg 33%
    15:00 +33°C° 0 mm 7 m/S 765 mmHg 35%
    16:00 +30°C° 0 mm 7 m/S 765 mmHg 43%
    17:00 +29°C° 0 mm 7 m/S 765 mmHg 50%
    18:00 +27°C° 0 mm 6 m/S 765 mmHg 58%
    19:00 +26°C° 0 mm 6 m/S 766 mmHg 62%
    20:00 +25°C° 0 mm 5 m/S 766 mmHg 66%
    21:00 +25°C° 0 mm 5 m/S 766 mmHg 70%
    22:00 +23°C° 0 mm 5 m/S 766 mmHg 72%
    23:00 +23°C° 0 mm 4 m/S 766 mmHg 74%

    25 September, Montag

    Zeit Temperatur Niederschläge Wind Luftdruck Luftfeuchtigkeit
    00:00 +23°C° 0 mm 4 m/S 766 mmHg 76%
    01:00 +22°C° 0 mm 4 m/S 766 mmHg 77%
    02:00 +22°C° 0 mm 4 m/S 765 mmHg 78%
    03:00 +22°C° 0 mm 4 m/S 765 mmHg 80%
    04:00 +22°C° 0 mm 3 m/S 766 mmHg 79%
    05:00 +21°C° 0 mm 3 m/S 766 mmHg 79%
    06:00 +21°C° 0 mm 3 m/S 766 mmHg 79%
    07:00 +24°C° 0 mm 3 m/S 766 mmHg 68%
    08:00 +26°C° 0 mm 3 m/S 766 mmHg 57%
    09:00 +28°C° 0 mm 3 m/S 766 mmHg 46%
    10:00 +29°C° 0 mm 4 m/S 766 mmHg 42%
    11:00 +30°C° 0 mm 4 m/S 766 mmHg 38%
    12:00 +32°C° 0 mm 4 m/S 765 mmHg 33%
    13:00 +32°C° 0 mm 5 m/S 765 mmHg 35%
    14:00 +32°C° 0 mm 5 m/S 765 mmHg 36%
    15:00 +32°C° 0 mm 6 m/S 765 mmHg 37%
    16:00 +29°C° 0 mm 5 m/S 765 mmHg 45%
    17:00 +28°C° 0 mm 5 m/S 765 mmHg 53%
    18:00 +26°C° 0 mm 5 m/S 765 mmHg 61%
    19:00 +26°C° 0 mm 4 m/S 766 mmHg 64%
    20:00 +25°C° 0 mm 4 m/S 766 mmHg 67%
    21:00 +25°C° 0 mm 3 m/S 766 mmHg 70%
    22:00 +24°C° 0 mm 3 m/S 766 mmHg 70%
    23:00 +24°C° 0 mm 3 m/S 766 mmHg 71%
    Mehr zeigen